Antigo, WI

6:56 PM CST on February 24, 2017 (GMT -0600)
Langlade County

Weather History for KAIG - September, 2012

Change the Weather History Date:

Sunday, September 16, 2012

  Actual Average Record
Temperature  
Mean Temperature 62 °F -  
Max Temperature 75 °F 65 °F 90 °F (1948)
Min Temperature 50 °F 43 °F 30 °F (1984)
Degree Days  
Heating Degree Days 2    
Growing Degree Days 12 (Base 50)    
Moisture  
Dew Point 44 °F    
Average Humidity 53    
Maximum Humidity 77    
Minimum Humidity 29    
Precipitation  
Precipitation 0.00 in - - ()
Sea Level Pressure  
Sea Level Pressure 29.97 in    
Wind  
Wind Speed 11 mph (SW)    
Max Wind Speed 22 mph    
Max Gust Speed 29 mph    
Visibility 10 miles    
Events      
Averages and records for this station are not official NWS values.
T = Trace of Precipitation, MM = Missing Value Source: NWS Daily Summary

Daily Weather History Graph

Daily Weather History Graph

Search for Another Location

Airport or City:

Trip Planner

Search our weather history database for the weather conditions in past years. The results will help you decide how hot, cold, wet, or windy it might be!

Date:

Astronomy

Sep. 16, 2012 Rise Set
Actual Time 6:36 AM CDT 7:04 PM CDT
Civil Twilight 6:07 AM CDT 7:33 PM CDT
Nautical Twilight 5:32 AM CDT 8:08 PM CDT
Astronomical Twilight 4:56 AM CDT 8:44 PM CDT
Moon 7:20 AM CDT (9/16) 7:03 PM CDT (9/16)
Length of Visible Light 13h 26m
Length of Day
12h 27m
New Moon, 0% of the Moon is Illuminated
Sep 16
New Moon
Sep 22
First Quarter
Sep 29
Full
Oct 8
Last Quarter
Oct 15
New

Hourly Weather History & Observations

Time (CDT) Temp. Dew Point Humidity Pressure Visibility Wind Dir Wind Speed Gust Speed Precip Events Conditions
12:15 AM 55.0 °F 44.1 °F 67% 30.05 in 10.0 mi SW 9.2 mph - N/A   Clear
12:35 AM 57.4 °F 44.2 °F 62% 30.05 in 10.0 mi SW 9.2 mph - N/A   Clear
12:55 AM 57.4 °F 44.2 °F 62% 30.05 in 10.0 mi SW 8.1 mph - N/A   Clear
1:15 AM 58.1 °F 44.1 °F 60% 30.05 in 10.0 mi SW 9.2 mph - N/A   Clear
1:35 AM 57.7 °F 44.1 °F 60% 30.04 in 10.0 mi SW 9.2 mph - N/A   Clear
1:55 AM 57.2 °F 44.1 °F 62% 30.04 in 10.0 mi SW 8.1 mph - N/A   Clear
2:15 AM 55.9 °F 44.1 °F 64% 30.04 in 10.0 mi SW 9.2 mph - N/A   Clear
2:35 AM 55.0 °F 43.9 °F 66% 30.03 in 10.0 mi SW 8.1 mph - N/A   Clear
2:55 AM 54.7 °F 43.9 °F 67% 30.03 in 10.0 mi SW 8.1 mph - N/A   Clear
3:15 AM 54.7 °F 43.9 °F 67% 30.03 in 10.0 mi SW 9.2 mph - N/A   Clear
3:35 AM 54.7 °F 43.9 °F 67% 30.02 in 10.0 mi SW 8.1 mph - N/A   Clear
3:55 AM 54.7 °F 43.9 °F 67% 30.02 in 10.0 mi SW 9.2 mph - N/A   Clear
4:15 AM 54.9 °F 43.7 °F 66% 30.02 in 10.0 mi WSW 10.4 mph - N/A   Clear
4:35 AM 54.5 °F 43.7 °F 67% 30.02 in 10.0 mi WSW 10.4 mph - N/A   Clear
4:55 AM 54.0 °F 43.7 °F 68% 30.02 in 10.0 mi WSW 8.1 mph - N/A   Clear
5:15 AM 52.2 °F 43.7 °F 73% 30.02 in 10.0 mi WSW 6.9 mph - N/A   Clear
5:35 AM 50.5 °F 43.2 °F 76% 30.02 in 10.0 mi SW 4.6 mph - N/A   Clear
5:55 AM 50.2 °F 43.2 °F 77% 30.02 in 10.0 mi SW 5.8 mph - N/A   Clear
6:15 AM 50.9 °F 43.7 °F 76% 30.02 in 10.0 mi SW 6.9 mph - N/A   Clear
6:35 AM 52.0 °F 43.7 °F 73% 30.01 in 10.0 mi SW 9.2 mph - N/A   Clear
7:15 AM 52.7 °F 43.9 °F 72% 30.02 in 10.0 mi SW 10.4 mph - N/A   Clear
7:35 AM 53.6 °F 44.1 °F 70% 30.02 in 10.0 mi SW 11.5 mph - N/A   Clear
7:55 AM 54.3 °F 44.1 °F 68% 30.02 in 10.0 mi WSW 10.4 mph - N/A   Clear
8:15 AM 55.8 °F 44.6 °F 66% 30.02 in 10.0 mi SW 10.4 mph - N/A   Clear
8:35 AM 57.2 °F 44.8 °F 63% 30.01 in 10.0 mi SW 11.5 mph - N/A   Clear
8:55 AM 59.0 °F 45.3 °F 60% 30.01 in 10.0 mi SW 12.7 mph - N/A   Clear
9:15 AM 60.6 °F 45.7 °F 58% 30.01 in 10.0 mi SW 11.5 mph 17.3 mph N/A   Clear
9:35 AM 62.2 °F 45.9 °F 55% 30.01 in 10.0 mi SW 15.0 mph - N/A   Clear
9:55 AM 63.5 °F 45.3 °F 52% 30.01 in 10.0 mi SW 16.1 mph - N/A   Clear
10:15 AM 65.1 °F 45.7 °F 49% 30.01 in 10.0 mi WSW 12.7 mph 19.6 mph N/A   Clear
10:35 AM 67.1 °F 47.5 °F 49% 30.00 in 10.0 mi WSW 12.7 mph - N/A   Clear
10:55 AM 68.5 °F 48.2 °F 48% 30.00 in 10.0 mi WSW 17.3 mph 23.0 mph N/A   Clear
11:15 AM 69.4 °F 49.1 °F 48% 29.99 in 10.0 mi SW 15.0 mph 20.7 mph N/A   Clear
11:35 AM 71.2 °F 49.8 °F 47% 29.98 in 10.0 mi SW 18.4 mph 23.0 mph N/A   Clear
11:55 AM 72.0 °F 48.9 °F 44% 29.98 in 10.0 mi SW 18.4 mph 25.3 mph N/A   Clear
12:15 PM 72.1 °F 48.2 °F 43% 29.98 in 10.0 mi SW 19.6 mph 27.6 mph N/A   Clear
12:35 PM 73.0 °F 47.1 °F 40% 29.97 in 10.0 mi WSW 18.4 mph - N/A   Clear
12:55 PM 73.9 °F 45.7 °F 36% 29.96 in 10.0 mi SW 20.7 mph 27.6 mph N/A   Clear
1:15 PM 74.3 °F 45.0 °F 35% 29.95 in 10.0 mi SW 18.4 mph 25.3 mph N/A   Clear
1:55 PM 75.4 °F 44.8 °F 34% 29.93 in 10.0 mi WSW 17.3 mph 27.6 mph N/A   Clear
2:15 PM 75.9 °F 45.5 °F 34% 29.93 in 10.0 mi SW 21.9 mph 26.5 mph N/A   Clear
2:35 PM 75.2 °F 45.0 °F 34% 29.93 in 10.0 mi SW 18.4 mph 28.8 mph N/A   Clear
2:55 PM 75.0 °F 44.6 °F 34% 29.92 in 10.0 mi SSW 15.0 mph 24.2 mph N/A   Clear
3:15 PM 75.2 °F 44.1 °F 33% 29.91 in 10.0 mi SSW 17.3 mph 25.3 mph N/A   Clear
3:35 PM 74.5 °F 41.9 °F 31% 29.91 in 10.0 mi SW 18.4 mph 25.3 mph N/A   Clear
3:55 PM 75.0 °F 41.5 °F 30% 29.90 in 10.0 mi SSW 17.3 mph 24.2 mph N/A   Clear
4:15 PM 74.7 °F 39.9 °F 29% 29.90 in 10.0 mi SW 13.8 mph 23.0 mph N/A   Clear
4:35 PM 74.8 °F 40.3 °F 29% 29.91 in 10.0 mi WSW 13.8 mph 20.7 mph N/A   Clear
4:55 PM 73.6 °F 40.1 °F 30% 29.90 in 10.0 mi SW 15.0 mph 23.0 mph N/A   Clear
5:15 PM 73.0 °F 41.0 °F 31% 29.90 in 10.0 mi SW 16.1 mph 19.6 mph N/A   Clear
5:35 PM 70.9 °F 41.2 °F 34% 29.91 in 10.0 mi SSW 12.7 mph 20.7 mph N/A   Clear
5:55 PM 70.3 °F 41.7 °F 35% 29.90 in 10.0 mi SW 10.4 mph - N/A   Mostly Cloudy
6:15 PM 69.4 °F 41.9 °F 37% 29.90 in 10.0 mi SSW 10.4 mph - N/A   Mostly Cloudy
6:35 PM 66.9 °F 42.4 °F 41% 29.90 in 10.0 mi SSW 8.1 mph - N/A   Scattered Clouds
6:55 PM 64.4 °F 42.8 °F 45% 29.90 in 10.0 mi SSW 8.1 mph - N/A   Clear
7:15 PM 63.5 °F 42.8 °F 47% 29.90 in 10.0 mi SW 8.1 mph - N/A   Scattered Clouds
7:35 PM 62.2 °F 43.2 °F 50% 29.91 in 10.0 mi SSW 6.9 mph - N/A   Mostly Cloudy
7:55 PM 60.8 °F 43.7 °F 53% 29.91 in 10.0 mi SSW 6.9 mph - N/A   Scattered Clouds
8:15 PM 61.9 °F 44.1 °F 52% 29.91 in 10.0 mi SW 8.1 mph - N/A   Clear
8:35 PM 62.1 °F 44.6 °F 53% 29.92 in 10.0 mi SW 8.1 mph - N/A   Clear
8:55 PM 60.6 °F 45.0 °F 56% 29.91 in 10.0 mi SW 6.9 mph - N/A   Clear
9:15 PM 60.1 °F 45.5 °F 59% 29.92 in 10.0 mi SW 8.1 mph - N/A   Clear
9:35 PM 61.2 °F 45.7 °F 57% 29.91 in 10.0 mi WSW 6.9 mph - N/A   Scattered Clouds
9:55 PM 61.2 °F 46.0 °F 58% 29.92 in 10.0 mi SW 8.1 mph - N/A   Clear
10:15 PM 60.8 °F 46.2 °F 59% 29.91 in 10.0 mi SW 8.1 mph - N/A   Scattered Clouds
10:35 PM 61.3 °F 46.0 °F 57% 29.91 in 10.0 mi SW 9.2 mph - N/A   Scattered Clouds
10:55 PM 61.7 °F 46.0 °F 56% 29.91 in 10.0 mi SW 8.1 mph - N/A   Clear
11:15 PM 60.6 °F 46.4 °F 59% 29.90 in 10.0 mi SW 6.9 mph - N/A   Clear
11:35 PM 59.7 °F 46.6 °F 62% 29.90 in 10.0 mi WSW 5.8 mph - N/A   Clear
11:55 PM 59.5 °F 46.8 °F 63% 29.90 in 10.0 mi SW 6.9 mph - N/A   Scattered Clouds